This is the latest recevied weather packets stored in our database for station/object R1CBW-13. If no packets are shown the sender has not sent any weather packets the latest 1 day(s).
| Time | Temp. | Humidity | Pressure | Rain* | Wind** | Luminosity | Snow |
|---|---|---|---|---|---|---|---|
| 1778058331 | 9.44° C | 40% | 1010.8 hPa | 0 mm | - | - | - |
| 1778058271 | 8.89° C | 40% | 1010.8 hPa | 0 mm | - | - | - |
| 1778058211 | 10° C | 39% | 1010.8 hPa | 0 mm | - | - | - |
| 1778058151 | 9.44° C | 39% | 1010.8 hPa | 0 mm | - | - | - |
| 1778058091 | 9.44° C | 39% | 1010.7 hPa | 0 mm | - | - | - |
| 1778057971 | 8.89° C | 41% | 1010.7 hPa | 0 mm | - | - | - |
| 1778057911 | 8.89° C | 41% | 1010.6 hPa | 0 mm | - | - | - |
| 1778057851 | 8.89° C | 40% | 1010.7 hPa | 0 mm | - | - | - |
| 1778057791 | 8.33° C | 41% | 1010.7 hPa | 0 mm | - | - | - |
| 1778057671 | 8.89° C | 42% | 1010.7 hPa | 0 mm | - | - | - |
| 1778057611 | 8.33° C | 42% | 1010.7 hPa | 0 mm | - | - | - |
| 1778057551 | 7.78° C | 43% | 1010.8 hPa | 0 mm | - | - | - |
| 1778057491 | 7.78° C | 43% | 1010.8 hPa | 0 mm | - | - | - |
| 1778057431 | 8.33° C | 42% | 1010.8 hPa | 0 mm | - | - | - |
| 1778057371 | 8.33° C | 42% | 1010.6 hPa | 0 mm | - | - | - |
| 1778057070 | 7.78° C | 43% | 1010.7 hPa | 0 mm | - | - | - |
| 1778056590 | 7.78° C | 43% | 1010.8 hPa | 0 mm | - | - | - |
| 1778055930 | 7.78° C | 45% | 1010.6 hPa | 0 mm | - | - | - |
| 1778055870 | 7.78° C | 45% | 1010.6 hPa | 0 mm | - | - | - |
| 1778055690 | 8.33° C | 43% | 1010.6 hPa | 0 mm | - | - | - |
| 1778055510 | 8.33° C | 44% | 1010.4 hPa | 0 mm | - | - | - |
| 1778055450 | 8.33° C | 44% | 1010.6 hPa | 0 mm | - | - | - |
| 1778055330 | 7.78° C | 44% | 1010.6 hPa | 0 mm | - | - | - |
| 1778055270 | 8.33° C | 44% | 1010.5 hPa | 0 mm | - | - | - |
| 1778055210 | 7.78° C | 43% | 1010.5 hPa | 0 mm | - | - | - |
* Rain latest hour (hover to see other rain measurements)
** Current wind speed in m/s (hover to see current wind gust speed)